GFSWCAN_700_spd_057.txt.gz
Wind_Speed
16 25 34 39 45 46 44 42 36 36 37 43 49 59 65 82 78 58 75 57 48 31 37 45 37 32 30 37 37 31 33 38 35 34 33 22 17 24 21 26 31 34 29 26 24 18 14 20 21 25 22 22 15 15
29 30 35 40 40 42 40 35 33 33 38 41 48 63 65 72 63 56 76 60 52 35 36 25 37 45 40 33 29 31 32 29 36 28 31 24 19 23 24 25 30 32 34 29 22 21 18 12 13 19 23 19 14 12
23 27 30 35 37 35 34 32 31 36 42 45 55 58 62 67 60 58 71 67 43 48 25 30 24 34 36 40 41 41 33 27 26 37 30 26 22 27 25 25 21 31 26 31 24 25 23 18 15 13 15 15 14 14
29 31 32 33 32 32 32 32 34 41 47 44 44 36 52 60 50 50 71 61 26 44 40 28 30 32 33 39 39 41 36 34 28 32 34 33 31 32 32 37 37 29 31 30 29 25 20 18 17 16 15 14 15 16
27 29 29 29 28 27 30 30 33 43 40 37 32 40 47 60 49 51 67 59 24 24 41 30 26 24 28 35 37 34 38 36 30 32 32 34 29 28 29 29 33 34 39 33 33 27 21 15 14 17 17 16 18 21
29 26 31 32 30 29 27 27 32 35 34 30 37 43 42 50 51 44 56 76 54 17 11 25 31 23 19 26 28 33 37 39 30 31 31 28 25 24 18 33 32 33 29 26 26 19 17 17 18 17 20 21 23 26
26 30 34 37 34 28 25 25 29 37 36 34 43 42 46 41 40 37 45 57 66 24 15 10 19 27 20 23 27 30 34 38 39 36 37 35 27 30 30 25 30 32 27 23 22 20 20 19 19 20 22 25 26 27
34 38 39 35 32 33 39 39 40 41 43 41 44 44 42 37 29 23 34 40 37 30 18 11 7 8 18 25 28 33 36 39 38 34 33 32 31 29 24 23 15 20 21 21 23 23 20 19 20 22 25 26 26 27
33 34 35 35 37 38 40 37 37 37 38 39 36 37 36 27 28 25 35 47 39 39 25 24 23 12 12 25 30 30 37 38 37 39 38 32 39 27 29 33 21 23 22 24 25 23 21 23 24 25 25 26 26 26
32 30 31 31 33 33 35 36 37 38 35 36 30 31 28 31 36 28 28 26 21 29 42 38 31 20 26 22 32 37 19 31 12 27 24 22 24 17 27 20 20 16 18 22 26 28 27 26 25 25 25 25 26 25
30 34 32 29 30 31 32 32 33 32 30 33 33 31 31 34 39 33 22 17 16 14 27 45 47 37 29 23 19 13 11 9 7 10 13 10 26 28 26 29 29 28 23 24 30 34 29 27 23 22 24 24 23 21
32 32 35 32 32 32 29 25 27 38 44 39 27 33 40 28 22 14 7 8 9 11 13 31 43 31 23 19 13 11 7 8 6 15 16 11 18 22 27 28 29 31 33 32 31 28 26 21 22 22 23 23 21 20
31 33 37 39 38 36 40 47 44 38 30 37 38 27 21 17 17 10 13 11 7 14 22 25 27 25 22 17 8 10 9 11 8 14 10 11 14 19 23 28 31 30 29 27 24 20 24 24 20 18 17 17 17 16
40 47 45 46 48 46 45 34 28 23 16 29 14 15 7 9 11 12 18 22 18 18 31 31 30 17 16 12 9 8 7 9 9 10 10 11 15 17 18 19 20 22 22 22 20 18 16 14 13 13 13 13 14 13
39 40 38 39 38 34 28 26 26 16 23 8 7 5 6 10 14 17 19 19 19 21 26 24 21 13 14 7 7 6 10 7 8 9 10 10 5 7 9 13 17 18 15 14 11 11 10 11 11 11 12 13 11 10
29 34 34 32 31 25 24 20 17 26 16 5 5 16 18 21 21 18 19 22 26 26 23 14 7 6 6 8 6 5 6 5 7 9 9 7 9 10 10 10 8 9 9 8 10 12 11 12 13 14 12 9 9 11
24 29 28 25 20 18 16 12 10 8 6 9 13 14 18 19 19 19 22 24 28 26 19 7 5 4 8 6 6 7 6 7 9 9 10 9 6 5 5 6 6 7 9 10 10 11 12 13 12 10 9 10 11 14
23 24 30 28 20 18 14 10 6 6 14 17 15 14 12 15 16 15 16 18 22 21 16 8 7 7 6 6 8 9 9 9 7 6 6 7 9 9 8 5 5 4 7 9 9 11 12 11 10 11 12 14 15 17
24 25 33 27 19 18 14 11 6 9 12 13 14 13 12 13 12 12 13 14 15 15 14 11 5 8 10 14 13 11 10 8 8 12 14 13 9 6 6 6 6 6 7 9 11 10 10 12 14 16 17 19 21 22
13 13 14 22 22 21 11 8 13 14 17 16 13 12 13 12 11 10 9 9 9 11 10 7 14 16 15 13 12 13 13 13 11 10 9 11 10 9 9 9 8 7 8 9 9 11 13 15 18 21 23 25 26 28
8 6 5 9 16 18 7 10 9 20 20 15 13 10 10 8 6 7 8 8 10 11 22 21 18 17 16 14 13 12 12 11 8 7 6 7 9 9 8 9 9 9 11 12 13 15 17 20 24 26 28 29 31 31
10 10 8 4 2 7 7 9 17 19 18 17 15 17 16 15 13 11 10 9 18 25 21 18 17 15 14 11 9 8 8 7 5 5 5 5 6 7 8 9 11 13 15 17 20 22 24 26 28 29 30 31 32 32
8 8 3 5 7 8 16 19 21 18 12 18 16 14 13 12 12 10 12 22 23 20 16 13 11 10 9 9 8 6 5 5 4 3 4 6 8 10 11 13 15 18 21 23 25 27 28 29 30 30 30 31 33 36
4 2 5 5 6 10 13 11 13 12 16 13 12 12 9 9 8 12 19 18 16 14 10 8 7 6 5 5 5 6 6 7 8 9 10 11 12 14 16 19 21 23 24 25 25 25 26 26 28 31 33 35 37 39
3 5 6 8 7 8 8 9 9 11 11 12 12 9 8 6 7 13 13 12 11 9 7 5 4 3 2 2 3 3 4 5 7 8 10 11 13 14 16 17 19 20 22 24 25 27 29 31 33 36 37 38 39 40
7 11 6 6 8 5 7 10 11 16 15 11 8 9 10 9 6 8 12 11 8 7 6 4 3 2 1 0 1 2 3 4 6 7 9 11 13 15 17 19 20 22 25 27 29 31 33 35 37 38 40 41 42 41
11 13 18 16 12 10 13 13 12 10 9 8 11 9 5 4 5 11 13 11 9 8 6 5 4 3 1 0 2 3 5 7 9 11 13 15 17 19 20 22 24 26 28 30 32 34 36 38 39 39 39 39 39 39
16 15 12 13 11 12 13 13 10 8 8 9 5 3 3 4 12 15 12 11 9 7 5 3 2 2 4 5 7 9 11 12 14 15 16 17 19 21 22 24 26 29 31 34 35 35 36 36 36 37 37 36 36 36
19 16 13 10 8 9 11 12 11 10 9 6 5 5 9 14 13 11 10 8 6 5 4 4 5 7 8 9 10 10 11 12 13 14 15 18 20 24 27 29 31 31 32 33 34 34 35 36 37 37 37 37 37 36
14 11 8 7 7 12 10 9 6 6 5 5 4 5 6 7 8 7 7 6 6 5 5 6 8 7 7 7 7 8 10 13 15 18 22 24 26 27 27 28 29 30 31 32 33 34 35 36 36 36 36 36 35 35
14 12 11 10 10 9 7 5 4 4 4 3 2 2 2 2 3 3 4 5 5 4 3 3 3 4 6 8 10 13 16 19 21 22 23 24 25 26 28 29 31 32 33 34 34 34 34 33 33 32 32 32 32 32
11 11 10 8 7 6 4 4 2 1 2 1 1 1 2 3 3 3 3 3 2 2 2 3 4 6 8 11 15 17 18 18 19 20 22 24 26 27 28 30 32 32 33 32 31 31 30 30 30 30 31 31 31 31
10 9 8 7 5 4 5 5 4 5 4 4 4 2 2 2 2 2 2 2 2 3 4 5 8 11 14 15 15 16 16 17 19 21 22 23 25 27 28 29 29 28 28 28 28 29 29 29 30 30 30 30 30 30

GFSWCAN_700_spd_060.txt.gz
Wind_Speed
6 9 19 25 34 31 38 37 44 52 51 50 48 52 67 61 51 77 70 64 58 31 34 28 36 43 39 37 37 35 29 34 33 36 28 19 17 26 23 20 30 32 29 27 27 19 14 22 19 24 24 20 18 17
12 17 20 23 31 35 36 43 47 49 45 47 47 52 58 64 62 66 76 38 44 40 29 26 32 35 36 37 31 25 24 25 33 30 30 19 19 22 26 28 25 29 31 30 29 26 27 18 18 18 19 20 21 17
26 26 26 24 28 39 39 40 42 42 42 42 47 53 52 54 65 69 62 33 52 51 20 23 27 24 27 31 33 35 33 14 16 35 25 27 17 31 23 28 24 26 26 28 30 33 31 30 27 24 19 16 17 17
24 30 33 35 35 36 38 38 37 37 40 43 47 44 51 59 60 65 65 30 42 54 22 27 25 32 33 31 31 29 25 27 17 19 24 28 25 28 27 30 29 30 28 32 34 29 24 29 29 23 20 19 17 16
23 26 29 30 30 30 32 32 34 36 36 38 40 41 47 59 56 54 61 39 33 44 31 25 25 22 31 36 39 38 34 31 31 28 22 27 30 29 26 28 33 31 31 34 42 40 29 33 22 17 19 19 18 18
25 24 25 25 26 26 27 28 31 34 34 34 35 38 41 47 48 40 32 54 33 29 22 16 24 25 22 24 29 31 32 29 31 28 29 29 25 25 26 35 37 32 33 32 33 24 32 26 20 20 19 19 20 21
27 27 26 25 24 24 27 32 36 36 32 32 26 32 39 37 42 48 26 56 48 32 20 19 15 25 25 21 13 16 23 32 32 35 33 28 26 26 31 32 24 23 25 23 24 28 29 23 22 21 22 21 21 23
31 29 27 24 21 20 25 31 36 34 30 29 28 36 35 48 36 29 45 44 49 30 19 17 16 17 28 25 14 19 25 31 35 36 38 36 31 32 32 37 30 24 24 25 24 27 28 25 23 22 22 23 23 25
28 29 30 27 27 28 29 36 36 35 41 38 41 45 46 34 36 30 31 17 22 38 16 12 18 12 15 18 14 24 31 34 30 37 37 32 33 30 43 40 32 29 20 27 26 27 27 27 26 24 23 24 25 27
27 31 38 37 39 38 40 42 43 46 36 42 48 47 34 29 23 23 25 19 13 16 27 22 21 13 13 9 21 7 21 21 24 32 29 36 33 32 28 27 27 31 23 21 21 21 23 27 23 23 25 27 29 30
27 28 32 33 33 33 36 42 44 43 39 42 38 35 32 32 26 18 16 17 14 11 25 34 31 26 21 20 21 15 5 15 17 17 30 21 28 34 34 33 34 25 21 22 21 22 21 28 27 29 30 32 29 25
27 27 26 27 30 32 35 38 40 41 39 37 36 31 41 26 14 8 17 22 11 18 12 17 27 30 31 32 21 9 7 10 6 11 12 6 19 21 20 22 26 25 24 28 27 27 27 29 29 29 24 21 19 20
24 27 29 29 29 29 29 30 35 36 37 33 32 30 14 8 7 10 16 29 22 9 22 25 23 21 24 20 17 6 4 3 10 12 7 11 17 18 19 24 26 28 28 26 25 24 23 22 22 17 15 16 19 19
25 26 26 28 30 30 29 33 33 40 47 30 15 12 11 9 9 10 22 29 20 15 18 18 14 16 13 14 13 5 5 10 9 8 8 13 16 16 17 18 18 16 17 19 21 19 18 19 17 14 14 15 17 15
27 26 27 27 28 30 37 40 19 15 4 6 8 6 6 9 15 15 20 20 15 10 22 24 20 15 18 5 6 5 7 4 6 5 7 11 10 9 8 9 12 14 15 16 15 12 8 7 7 10 13 13 13 13
38 38 36 39 41 36 36 29 7 4 8 5 4 16 17 15 17 17 16 15 14 21 22 21 7 7 6 6 4 3 3 2 2 5 6 13 11 12 12 13 13 12 11 8 6 6 6 8 9 10 10 11 12 12
22 26 26 28 26 22 17 9 5 6 6 7 12 13 16 18 19 18 17 18 21 22 20 7 6 4 8 6 5 5 3 3 5 7 9 10 8 8 9 8 7 6 6 7 7 8 8 9 10 11 12 12 10 11
17 14 14 16 17 17 14 10 10 6 19 18 16 15 12 14 16 19 21 22 22 21 11 7 8 8 7 7 9 11 8 8 12 13 12 13 12 11 10 8 6 8 7 6 7 8 9 11 12 12 11 12 13 14
20 16 13 17 14 8 7 11 15 11 16 14 14 13 11 12 12 12 16 20 18 18 15 8 4 7 9 14 14 12 12 11 14 17 16 15 12 11 10 6 4 3 4 5 7 8 9 9 10 12 14 16 18 21
18 17 13 9 9 5 3 5 12 12 16 14 12 12 12 13 12 13 12 14 14 13 10 6 11 14 15 14 13 13 14 13 13 15 15 14 12 11 10 7 5 4 5 6 7 8 9 11 12 15 19 22 25 28
10 10 3 8 11 10 4 9 9 20 18 13 11 10 10 9 7 8 8 8 11 12 21 20 19 17 16 15 15 15 15 12 9 7 8 9 9 8 5 4 4 5 6 7 9 10 12 15 17 20 24 28 31 33
12 14 9 6 2 6 7 9 17 18 16 16 15 15 14 12 9 6 9 11 18 26 23 20 18 17 15 14 13 13 13 11 10 8 7 5 4 3 4 5 7 9 11 12 14 17 20 23 26 28 30 32 33 34
10 8 6 8 8 9 17 18 20 16 12 19 17 15 15 15 15 12 13 25 26 22 19 17 16 13 12 12 11 10 9 7 5 4 4 4 5 7 8 10 11 13 15 18 21 23 25 27 28 29 29 30 32 33
8 5 9 7 9 10 11 12 13 13 14 13 13 13 13 13 13 18 24 22 20 17 14 13 12 10 9 8 7 6 5 5 4 5 6 7 9 10 12 14 16 18 19 21 22 23 24 26 28 30 33 35 37 39
7 9 7 10 7 10 9 10 12 14 15 14 12 9 9 9 9 15 17 17 15 13 11 10 9 7 5 4 3 3 3 4 5 6 7 8 9 11 12 14 16 18 20 22 25 27 29 31 33 35 37 39 40 41
8 10 7 6 8 5 5 7 10 14 12 8 6 8 10 8 6 8 15 14 13 11 10 9 8 7 5 4 3 2 1 1 3 4 6 8 11 13 16 18 20 22 24 26 27 29 32 34 36 38 39 40 41 40
10 12 15 14 12 9 12 12 11 8 5 5 9 9 4 3 4 12 14 13 11 10 9 8 7 6 4 2 1 1 3 5 7 9 11 13 15 16 18 19 21 23 26 29 31 33 33 34 35 36 37 38 39 39
16 16 14 15 12 12 11 10 7 5 5 6 6 3 4 4 10 18 15 13 12 10 8 6 4 2 1 3 5 7 8 9 11 12 13 14 16 18 20 23 25 26 27 28 29 31 33 34 36 37 37 38 38 37
20 17 14 10 7 8 10 12 11 9 7 4 3 0 3 11 17 16 14 12 10 7 5 3 3 4 5 6 7 8 8 9 10 13 15 17 19 21 22 22 23 26 28 30 31 33 34 35 35 35 34 34 34 35
16 14 10 8 8 12 10 9 7 6 5 5 5 5 9 11 11 11 10 8 6 5 4 5 5 6 5 4 5 7 9 11 13 16 17 17 17 19 21 23 25 27 28 30 30 30 30 30 32 33 33 34 34 34
16 12 12 12 11 9 7 6 5 6 6 5 4 4 4 3 4 5 5 5 5 5 5 4 3 3 4 6 8 10 13 15 15 15 15 18 20 21 22 24 26 27 27 27 27 27 28 29 29 30 31 32 31 31
11 11 11 10 9 7 5 4 4 3 3 2 1 0 1 2 3 4 4 4 4 3 3 4 4 5 6 9 12 13 13 13 13 16 18 19 20 21 23 24 24 25 25 25 25 26 27 27 28 30 31 30 30 30
8 9 8 8 7 5 5 5 4 5 5 5 5 3 3 3 3 3 3 3 3 3 3 4 6 9 11 12 11 11 12 14 16 17 17 18 19 20 21 21 22 23 23 24 25 25 26 26 27 29 29 29 29 29

GFSWCAN_700_spd_063.txt.gz
Wind_Speed
15 13 6 11 19 33 43 44 47 46 42 51 50 54 55 56 61 56 65 71 47 47 42 33 33 46 38 45 45 43 33 36 30 24 15 13 15 33 34 17 21 30 30 25 26 21 17 21 22 25 31 26 20 18
10 4 8 14 22 29 37 42 42 40 46 48 47 52 49 54 53 53 69 67 57 28 39 29 34 34 37 42 32 36 38 30 39 32 31 17 17 18 31 40 35 27 32 29 31 29 28 23 21 22 24 21 23 19
25 14 16 21 25 29 33 35 37 43 42 42 48 49 48 50 55 56 62 63 59 41 28 33 27 24 24 31 35 28 25 20 25 37 24 26 18 30 25 33 30 37 33 30 31 33 31 29 28 28 29 28 23 20
31 33 25 27 27 31 35 37 36 35 44 41 45 46 49 51 57 57 42 43 55 41 34 22 35 26 24 32 36 36 27 20 12 19 30 22 21 31 26 34 29 31 30 34 34 36 31 29 25 26 30 29 25 21
26 27 28 25 33 37 34 35 36 38 43 41 44 48 53 53 56 54 37 55 39 36 23 18 30 29 23 25 37 36 34 34 30 19 24 27 28 25 24 31 35 34 33 31 35 27 22 27 31 29 32 29 24 22
23 26 29 30 32 32 34 37 38 39 41 42 42 45 48 50 46 46 44 55 40 36 9 13 26 25 25 23 25 26 28 28 32 33 28 28 26 23 24 35 32 25 26 28 29 27 28 31 29 22 26 26 23 22
21 21 22 23 25 28 31 34 35 36 36 37 40 39 42 44 43 48 44 49 38 35 6 8 19 26 23 21 24 25 26 26 28 30 34 33 30 32 33 32 22 19 24 27 27 27 28 29 23 24 24 24 23 24
25 23 21 22 25 28 29 30 31 32 33 35 33 33 33 33 31 30 31 40 35 34 16 6 16 23 25 23 20 18 21 25 29 33 34 36 33 30 30 35 34 29 23 22 24 24 26 25 23 23 23 24 25 25
22 21 18 24 28 37 40 45 42 38 35 35 31 28 30 31 33 24 17 31 35 35 9 7 19 20 19 23 22 17 10 18 22 33 39 32 38 31 29 26 24 23 28 32 30 26 30 31 27 26 27 25 25 25
32 26 24 26 31 36 37 37 35 37 40 42 41 38 31 37 33 23 22 21 20 38 11 11 16 19 17 17 16 10 9 16 16 28 25 41 38 34 38 33 28 27 27 29 25 25 20 22 22 22 24 24 27 31
32 31 35 35 35 35 32 36 42 48 40 33 31 32 39 43 34 21 12 10 12 20 26 21 19 17 16 12 10 5 8 4 9 16 28 23 30 35 33 32 27 23 23 28 28 35 31 20 14 16 22 27 32 33
27 31 33 38 36 37 41 44 40 34 32 43 40 38 43 35 11 8 13 12 9 11 13 27 27 21 15 11 5 5 7 5 8 16 16 11 17 19 24 28 32 30 25 22 22 15 17 25 21 20 21 25 24 26
26 32 36 46 45 42 43 40 44 39 39 38 36 26 17 9 6 10 15 15 8 15 16 18 18 19 19 17 7 3 4 6 5 8 7 10 9 13 18 22 29 26 21 19 19 20 20 19 19 22 22 21 20 19
23 28 31 31 34 40 43 36 31 30 34 25 24 9 5 8 7 9 23 29 18 10 10 14 17 16 13 15 7 7 9 7 4 5 5 8 11 11 12 11 12 16 18 16 16 16 16 16 16 15 13 13 15 19
16 19 21 24 26 31 31 30 26 28 20 18 9 4 7 7 15 19 22 28 29 19 12 13 12 13 16 9 10 7 7 5 6 4 4 6 9 8 7 7 8 8 10 12 13 12 12 11 9 9 12 14 14 14
13 14 15 15 17 22 25 22 21 15 6 3 3 12 13 13 14 20 18 24 24 19 18 22 13 11 7 10 8 6 8 4 3 3 4 9 12 12 11 11 11 10 9 9 8 6 6 6 6 6 6 8 10 12
21 22 25 25 29 41 23 15 9 7 3 6 12 17 17 18 17 18 19 19 21 23 18 8 6 5 9 8 7 7 7 9 8 11 15 14 12 12 11 8 8 6 5 4 6 5 4 2 4 5 8 10 12 12
30 28 26 29 24 21 21 9 6 5 17 18 20 19 15 17 18 17 19 21 18 17 15 6 8 7 6 7 10 14 14 13 14 15 14 13 12 12 10 8 3 4 6 6 5 1 3 5 7 10 10 11 11 12
15 19 16 15 16 16 11 5 7 8 17 18 16 14 11 12 12 13 14 14 11 11 9 8 5 8 10 16 16 15 14 14 14 16 16 15 13 12 8 6 8 7 4 4 4 5 6 8 8 8 10 11 14 18
12 11 11 11 13 2 4 7 14 10 12 12 9 8 7 9 9 9 11 12 10 8 7 7 14 16 16 15 13 12 13 13 11 14 16 16 15 13 10 7 5 4 4 5 5 6 6 8 10 12 14 17 20 23
14 8 4 6 12 8 7 6 9 14 12 10 9 6 8 8 6 6 6 8 9 7 18 19 18 18 17 16 15 15 15 13 10 10 14 15 15 10 6 5 4 4 3 5 7 9 10 12 14 17 20 23 26 29
20 16 7 5 7 8 8 8 12 13 14 12 9 9 11 9 7 6 7 7 14 23 23 21 19 17 17 17 15 15 15 14 13 12 11 10 8 5 2 2 4 5 7 9 11 13 15 18 21 24 26 28 29 30
12 8 8 10 9 8 15 15 14 11 8 14 12 14 12 12 11 10 12 23 28 24 23 20 18 17 16 18 17 16 15 11 9 8 6 3 1 2 4 6 8 10 12 14 17 19 20 22 23 25 27 29 32 34
7 6 11 8 8 10 9 10 11 11 11 11 9 11 11 12 11 18 25 24 22 21 19 18 17 15 14 12 10 9 10 9 5 4 4 4 6 7 9 10 12 14 15 17 19 21 23 25 28 30 31 33 35 36
6 9 9 9 8 11 9 10 10 12 13 12 11 10 8 8 8 16 19 19 18 16 15 14 12 10 8 7 7 6 5 5 4 4 4 5 6 7 9 11 13 15 18 20 22 24 26 28 30 32 33 34 35 36
8 9 6 6 8 6 7 11 12 14 11 7 6 8 9 10 6 9 17 17 15 14 13 12 11 9 7 6 5 5 4 3 2 1 3 6 8 10 13 15 16 18 20 22 24 26 27 28 30 32 35 36 37 37
11 13 16 15 13 11 13 13 11 7 4 3 8 9 5 4 4 14 18 17 16 14 13 12 10 9 8 6 5 3 1 2 4 6 8 10 11 12 14 16 18 20 22 22 24 26 28 30 31 32 32 33 33 34
16 17 15 16 13 13 11 9 7 6 5 5 5 3 3 4 8 19 19 16 15 13 12 10 8 6 4 3 2 3 5 6 7 8 9 11 13 15 17 18 18 20 22 24 25 27 27 27 28 28 29 30 31 33
20 17 14 11 9 10 12 14 12 10 7 4 2 1 3 5 13 18 17 16 14 12 10 8 6 4 3 4 4 5 5 5 7 10 12 14 16 16 16 18 20 22 23 24 24 24 24 25 26 27 27 28 31 32
17 15 11 9 10 14 12 10 8 8 7 6 6 4 7 11 13 13 13 11 9 7 6 4 4 4 4 3 3 5 7 9 11 13 13 13 14 16 17 19 20 21 21 21 21 22 23 24 25 27 28 30 31 31
17 13 13 13 14 12 10 8 7 8 8 7 6 7 5 5 6 7 7 7 6 5 4 4 4 3 3 4 6 8 10 12 11 11 12 14 15 17 18 18 18 18 18 18 18 19 20 22 23 25 26 28 29 30
12 12 12 12 11 10 9 8 6 5 5 3 2 1 2 3 4 4 5 5 4 4 4 3 3 4 5 7 10 11 11 11 11 13 14 15 16 17 17 17 16 17 17 16 17 19 20 22 23 25 26 27 28 29
10 10 9 9 8 7 7 6 5 4 4 4 3 3 3 3 3 3 4 4 4 4 3 3 4 6 9 10 10 9 10 12 13 13 13 14 15 16 15 15 15 15 16 17 18 19 20 22 23 24 25 26 27 27

GFSWCAN_700_spd_066.txt.gz
Wind_Speed
31 17 17 22 26 23 38 47 45 51 51 47 46 52 51 57 61 66 54 61 57 44 19 35 36 41 35 43 47 36 30 29 34 27 19 13 11 17 24 19 8 14 21 22 21 14 14 20 19 24 28 20 18 19
20 12 11 12 3 10 27 40 48 51 47 46 47 45 46 55 65 60 54 62 56 54 24 34 35 34 38 42 39 36 43 35 29 25 21 15 15 15 17 17 39 20 16 18 23 19 21 18 15 19 21 20 21 21
20 13 11 13 18 28 38 43 46 44 43 43 48 50 45 52 60 52 55 60 53 48 44 26 32 36 30 38 41 40 37 26 41 36 27 23 20 22 24 24 20 35 35 29 28 27 25 24 24 26 25 24 25 24
34 16 12 20 27 30 33 36 39 40 38 42 42 40 46 52 54 55 55 54 48 37 32 34 43 37 33 39 34 29 27 37 33 29 32 29 24 23 21 21 24 25 26 38 46 39 33 33 28 27 24 24 24 25
25 32 24 21 27 29 31 34 35 36 41 44 46 45 52 49 56 52 48 48 44 45 25 22 24 39 34 41 43 41 37 24 24 25 35 35 26 19 21 27 30 30 30 32 33 27 27 26 25 29 29 29 31 29
26 25 29 34 29 32 35 36 37 40 41 40 39 52 46 48 50 48 36 33 36 54 40 14 32 28 26 36 41 44 41 33 32 25 23 25 31 29 20 27 25 27 28 30 32 29 30 28 25 27 29 33 28 25
19 26 27 25 28 39 43 43 43 39 38 40 46 46 45 46 42 38 28 33 42 49 38 17 20 34 30 31 34 34 35 38 36 30 31 25 26 28 30 29 16 19 24 29 27 25 27 26 27 28 31 32 27 26
19 20 25 29 31 32 32 33 37 40 41 40 39 39 37 37 32 36 30 25 39 31 30 17 11 34 34 36 36 36 35 34 33 31 28 34 34 30 28 35 33 31 23 19 20 23 26 26 27 27 24 23 25 24
20 21 26 29 31 32 33 35 34 36 37 44 45 42 39 36 33 35 30 19 34 29 11 22 5 18 33 39 37 33 30 30 27 34 31 25 34 24 26 27 24 18 18 20 24 28 31 32 31 30 27 25 27 26
22 26 28 30 30 30 31 35 36 37 39 41 38 36 32 31 21 22 20 18 19 24 27 19 11 11 34 34 36 24 25 21 13 25 23 36 41 35 24 12 14 16 18 20 22 26 28 29 25 28 30 25 25 28
31 41 44 43 39 37 36 35 36 36 34 31 30 31 35 36 33 21 15 19 14 17 29 19 14 16 27 26 27 14 12 10 8 9 17 14 23 31 37 28 26 28 27 25 26 26 22 21 27 24 23 22 22 24
35 37 37 33 36 41 42 41 41 39 37 21 20 42 44 26 17 8 17 19 15 21 16 17 7 20 21 21 14 11 9 9 5 7 10 6 16 21 22 26 29 32 30 27 29 25 22 21 17 22 21 15 16 17
30 33 36 40 41 38 33 34 24 32 27 31 33 29 6 7 6 7 11 8 11 22 31 31 23 13 13 8 6 5 5 4 2 5 4 5 12 17 21 23 26 29 29 27 17 12 14 16 16 15 16 16 15 18
35 35 42 38 27 29 23 19 23 25 33 23 12 11 5 6 6 12 18 18 13 20 22 28 28 19 11 10 6 6 4 2 3 1 3 1 4 8 11 10 11 14 17 15 12 16 13 13 14 10 10 10 9 11
22 22 20 25 24 21 28 28 27 28 19 6 4 4 6 7 12 15 24 26 16 20 23 27 24 19 16 7 7 6 8 4 3 4 4 5 6 7 6 9 9 9 9 8 8 9 11 11 10 10 9 9 9 10
21 22 26 30 27 28 25 23 24 20 11 2 1 7 11 10 11 12 22 29 25 16 14 14 9 7 9 7 8 6 8 6 7 5 5 10 11 12 11 11 11 10 10 9 8 7 6 5 2 3 3 4 5 7
23 22 22 22 18 13 19 14 9 9 6 3 7 13 14 15 16 16 16 22 23 24 25 13 8 7 10 8 8 11 10 12 11 11 14 14 13 13 14 12 10 7 5 5 5 6 6 5 3 2 2 4 7 8
17 19 20 22 23 18 17 8 2 2 9 13 13 14 13 16 19 20 23 24 28 33 26 18 13 9 8 9 11 16 18 16 16 17 16 16 15 15 12 8 5 3 6 9 9 8 5 3 2 4 5 6 8 9
25 37 29 26 21 16 11 2 3 6 13 15 16 16 15 15 16 18 18 18 21 25 24 12 6 10 12 17 20 18 17 17 16 16 15 15 14 13 10 9 10 11 10 9 6 4 3 3 5 6 7 9 11 14
9 14 17 13 11 7 4 6 11 7 10 13 12 12 13 13 13 13 13 13 16 12 8 9 20 21 21 20 18 16 16 15 13 14 16 19 17 15 14 12 9 8 6 5 3 2 3 5 8 11 13 14 16 19
12 10 12 14 5 10 6 5 7 10 10 13 12 10 13 11 7 8 8 8 7 9 22 22 21 20 19 17 17 17 16 14 13 15 19 21 18 13 10 9 7 5 3 2 4 7 9 11 13 15 18 20 23 26
18 12 5 1 4 1 7 7 9 12 15 14 14 13 14 12 10 9 9 9 16 23 24 22 20 19 19 18 18 18 18 16 17 17 17 15 12 10 7 4 2 2 4 6 9 11 13 15 18 20 21 23 25 27
15 10 7 9 9 8 12 11 8 8 6 9 8 11 11 11 10 8 12 22 26 24 22 21 20 18 18 20 20 20 19 17 16 15 12 9 6 3 2 2 4 7 9 11 13 14 15 17 20 22 24 26 28 30
12 12 13 8 8 9 8 10 11 10 10 8 9 12 12 12 10 16 25 24 23 23 21 20 20 20 20 19 19 19 17 13 9 8 7 5 3 4 6 7 8 9 10 12 15 17 19 21 23 25 27 28 29 31
7 9 9 8 7 8 7 9 9 10 12 9 9 9 7 7 7 15 19 20 19 19 19 18 15 14 12 12 12 12 12 11 8 4 3 4 5 5 6 7 10 12 14 16 18 20 22 23 25 26 27 28 28 28
7 7 5 5 6 4 5 6 8 10 7 6 5 7 9 7 4 8 17 19 17 17 16 15 13 11 10 9 9 8 6 5 4 3 2 3 5 7 9 10 12 14 17 19 20 21 23 24 25 25 24 24 25 26
10 11 14 12 11 8 9 9 7 4 3 3 4 5 3 1 2 12 18 18 16 15 14 14 13 11 9 8 7 5 3 2 2 2 4 6 8 9 11 14 15 16 17 19 20 21 21 21 20 21 22 23 24 25
14 17 15 15 13 12 10 8 6 5 4 3 2 1 1 2 4 15 19 17 16 14 13 11 10 9 7 5 4 3 3 3 4 5 6 9 11 13 14 14 15 17 18 18 19 18 17 17 18 19 20 21 23 25
19 17 14 11 10 11 13 13 11 9 7 4 3 3 4 4 8 16 17 16 15 13 12 11 9 7 5 4 3 3 3 4 5 8 10 12 13 13 13 15 16 17 17 17 16 15 16 16 17 19 20 22 23 25
17 14 11 9 11 14 12 10 9 8 7 6 6 3 3 6 10 13 14 14 12 11 9 8 6 5 5 4 3 3 5 7 9 10 11 11 12 13 14 15 16 16 16 15 15 15 15 16 18 19 21 22 23 24
17 13 12 13 14 13 11 9 8 8 8 7 7 7 6 5 7 9 10 10 9 8 7 7 6 6 5 4 4 6 8 9 10 9 9 11 12 13 14 15 14 14 14 14 14 15 16 17 18 19 20 21 22 24
14 13 11 11 11 10 9 8 7 6 5 4 2 1 2 3 4 5 6 6 7 7 7 6 6 5 5 5 7 9 9 9 8 10 11 11 12 13 13 13 13 12 12 13 13 14 15 16 18 19 21 22 23 23
12 11 9 9 8 7 7 6 5 4 3 3 2 3 4 5 5 5 6 6 6 7 6 5 5 5 6 8 9 9 8 9 10 11 11 11 12 13 12 12 11 11 11 12 13 14 16 17 19 20 21 22 23 23

GFSWCAN_700_spd_072.txt.gz
Wind_Speed
30 31 35 38 34 32 34 37 40 41 49 51 50 51 54 55 52 59 63 65 65 61 36 45 35 35 32 37 37 30 33 38 31 40 32 20 18 26 23 21 22 19 26 25 30 23 22 13 17 30 33 27 18 15
28 30 29 27 28 31 34 35 37 34 44 46 47 53 50 52 53 51 67 56 58 53 48 37 48 39 33 31 32 30 46 33 40 30 33 23 16 22 26 26 24 31 20 23 16 16 24 21 25 16 21 22 16 15
25 23 21 23 28 30 29 31 35 36 38 42 44 51 49 47 47 54 54 57 51 54 45 31 40 22 25 34 32 33 37 45 35 46 29 21 24 21 20 28 20 24 20 25 13 21 9 11 22 21 27 25 21 14
19 17 18 20 23 21 15 23 34 40 37 36 44 48 44 44 43 45 42 55 57 52 38 47 42 41 25 37 36 41 34 42 38 36 34 28 25 20 25 18 23 18 12 13 21 16 20 25 15 18 17 16 19 18
15 14 14 18 16 14 17 27 34 37 37 34 43 48 41 41 41 45 37 32 52 46 33 28 35 38 40 37 38 39 43 42 42 49 25 35 28 19 17 17 27 21 19 22 21 14 13 12 14 27 33 30 28 28
15 10 10 15 21 20 25 29 32 33 35 38 43 47 42 39 37 36 33 31 40 45 26 27 21 23 28 25 40 42 47 47 38 46 40 25 27 23 17 20 19 20 23 20 19 20 22 21 17 15 15 16 18 19
18 11 16 16 19 28 32 34 36 38 40 43 42 42 42 39 42 47 44 44 45 47 23 12 17 32 28 20 31 38 45 53 44 40 28 41 29 32 24 27 21 16 16 17 22 26 27 25 27 27 28 27 27 28
24 14 14 15 21 28 31 32 34 38 41 40 36 42 53 57 56 48 36 34 29 34 32 7 7 11 17 26 26 29 42 49 48 36 34 22 26 24 29 29 30 24 16 17 22 24 26 26 27 26 25 25 27 26
24 31 32 27 26 29 31 34 32 30 38 42 52 52 48 44 47 35 30 32 32 29 18 14 11 8 14 21 19 21 39 47 45 36 34 22 24 21 17 14 14 13 17 23 26 27 25 22 23 23 24 25 27 27
24 26 29 31 37 37 34 35 34 32 33 39 41 41 34 36 34 28 20 18 28 32 21 20 18 16 10 15 19 25 36 35 17 21 25 19 24 18 14 11 18 22 21 22 24 24 23 23 24 26 28 26 26 26
27 29 31 31 30 27 28 30 30 31 33 36 35 28 30 30 22 13 10 8 9 9 19 23 20 22 25 11 6 29 32 18 7 13 19 16 18 23 22 27 30 25 24 27 28 26 23 22 21 23 24 26 25 24
25 26 29 33 35 33 32 32 33 33 32 31 33 31 26 15 7 5 9 7 6 6 7 17 18 18 19 20 8 20 12 21 9 16 17 10 22 27 29 33 36 31 31 29 25 25 24 23 24 25 26 24 24 24
27 30 29 28 29 31 32 32 29 27 28 28 29 24 9 5 5 5 7 6 5 8 8 10 13 5 19 9 6 14 9 10 12 14 10 15 20 22 26 30 35 32 31 33 32 31 28 27 26 29 29 23 14 12
30 28 29 28 26 24 24 29 29 24 29 24 7 7 5 4 3 6 11 11 8 6 7 2 10 3 9 6 8 5 10 12 8 8 8 11 16 18 21 25 28 28 28 26 25 27 31 29 28 24 15 11 8 6
28 29 27 24 24 31 27 21 23 23 14 8 5 5 6 7 7 12 11 7 6 5 6 6 1 5 7 4 5 2 4 5 5 6 9 10 8 9 11 14 16 17 17 19 20 22 22 18 14 10 8 6 5 3
18 22 27 27 24 16 14 23 19 10 10 8 6 9 10 9 9 14 10 8 13 11 12 8 4 4 4 2 4 5 5 4 5 10 11 10 9 8 9 10 11 12 13 15 16 13 11 9 7 6 7 6 5 4
21 18 16 19 20 15 8 9 12 12 8 9 5 5 6 9 9 12 13 12 19 15 15 6 4 3 4 4 5 5 6 5 8 10 11 12 12 13 16 17 16 14 13 12 12 13 11 11 9 8 7 6 4 2
16 17 15 14 12 8 7 8 9 6 8 7 4 1 4 7 8 10 18 17 20 18 7 5 6 4 5 5 6 3 5 8 10 11 13 15 18 18 16 14 14 13 13 13 13 12 10 9 7 6 5 3 2 4
4 4 6 9 6 2 2 6 7 4 7 3 2 2 4 6 8 9 14 18 16 13 4 0 1 4 4 7 9 10 11 11 12 14 17 19 19 17 14 13 13 13 13 13 10 8 7 6 5 3 2 4 6 9
3 3 1 3 3 7 6 4 5 6 7 9 8 5 2 5 8 9 10 8 10 7 7 3 2 5 9 11 12 10 11 12 13 17 20 20 19 18 18 17 17 16 12 9 7 6 5 3 3 5 7 9 12 15
6 4 4 6 11 12 1 6 7 8 9 10 10 10 11 8 4 6 7 9 11 9 6 6 8 10 13 12 11 11 14 15 15 17 20 21 21 19 19 17 13 11 8 7 5 2 3 4 7 9 11 13 15 18
9 9 8 4 3 13 12 11 12 16 14 12 10 9 10 10 11 11 10 4 9 11 9 10 11 13 13 12 11 11 10 12 14 18 20 21 22 19 16 13 11 8 5 2 2 4 6 8 9 11 14 16 19 22
11 11 11 11 10 9 12 11 12 10 4 7 7 9 9 9 8 5 7 10 14 13 14 13 12 13 13 13 13 13 14 14 17 19 18 16 14 13 10 8 6 3 1 3 5 6 8 10 13 15 17 19 20 21
12 12 12 8 9 11 13 13 13 11 9 9 11 13 11 12 9 14 19 17 15 13 11 12 13 12 12 13 15 18 19 18 17 17 16 13 10 8 7 4 1 2 3 5 7 9 12 14 16 18 19 19 18 17
8 10 9 9 7 11 12 14 15 15 14 11 10 7 6 6 8 10 13 14 13 12 12 11 11 12 13 15 17 17 17 16 14 12 11 10 7 5 2 1 3 5 7 9 11 13 14 16 16 16 15 14 14 15
7 7 5 5 7 7 8 10 9 11 10 9 8 8 6 4 4 5 12 14 14 13 14 13 12 11 12 14 14 15 14 13 11 9 7 5 2 1 2 4 6 8 9 11 12 14 15 15 14 12 12 12 13 15
7 8 11 11 12 13 14 12 9 7 7 6 6 4 4 3 2 6 13 14 14 14 13 13 12 11 9 9 9 8 7 7 6 4 2 1 2 4 5 7 8 9 11 12 13 14 13 12 11 10 11 12 14 15
10 12 12 13 12 11 10 9 9 8 8 7 5 4 3 3 2 4 12 13 14 13 12 10 10 9 8 8 8 7 7 4 1 1 2 4 5 6 7 8 9 11 12 13 13 12 11 9 9 10 12 13 15 17
17 15 13 10 10 11 14 15 12 11 9 8 7 6 5 4 2 7 11 13 13 12 11 10 9 8 8 8 7 5 2 2 4 4 5 6 7 8 8 9 10 11 12 12 11 9 8 8 9 11 13 15 16 18
14 12 11 10 11 16 14 12 12 11 11 10 10 8 6 4 3 3 7 9 9 9 9 9 8 8 8 7 5 4 4 5 5 6 7 7 8 8 9 9 10 11 10 9 8 8 8 10 12 13 14 16 17 18
15 12 10 11 13 13 11 10 9 9 10 10 10 8 7 5 3 4 5 6 7 8 8 8 7 7 7 6 6 5 5 6 7 8 8 8 8 9 9 10 11 10 9 8 8 8 10 11 13 14 15 16 17 19
12 11 9 9 9 8 6 7 8 8 8 8 8 6 5 3 0 1 3 5 6 6 7 7 7 7 7 7 6 6 7 8 8 8 8 9 9 9 10 10 10 9 8 8 9 10 11 12 14 15 16 17 18 20
10 9 7 6 5 5 4 4 6 8 7 6 6 6 6 5 3 5 5 6 7 7 6 7 7 7 6 6 7 8 9 9 8 9 10 10 10 10 10 9 9 9 9 9 10 11 12 13 14 15 16 18 19 20

GFSWCAN_700_spd_075.txt.gz
Wind_Speed
30 29 32 35 36 38 41 43 44 46 48 48 48 48 48 50 57 55 58 62 67 64 57 57 40 25 31 31 32 28 27 29 34 34 31 27 26 26 23 22 17 18 20 24 21 8 9 12 14 29 28 28 24 24
28 29 35 34 34 33 34 35 35 37 38 40 44 47 48 51 50 53 54 57 60 65 44 44 48 39 28 29 31 31 28 27 31 34 38 24 23 18 29 30 24 19 19 17 21 18 11 14 21 16 13 16 18 23
25 30 29 26 27 29 34 39 41 40 39 40 41 46 46 49 52 45 49 44 51 57 57 48 50 51 40 28 31 34 34 23 31 36 30 27 16 35 17 35 27 27 23 25 23 29 23 24 24 29 28 24 18 17
23 24 19 22 27 29 31 34 36 36 39 39 41 42 48 51 49 49 43 46 49 49 50 46 45 36 38 44 31 36 31 26 21 32 35 30 28 29 33 22 28 26 17 21 26 23 14 19 25 29 31 28 23 29
17 13 15 20 23 20 16 7 20 30 33 32 35 44 46 46 47 44 38 37 49 51 35 37 38 37 38 33 34 42 34 29 25 30 34 44 46 24 25 27 32 21 29 18 18 7 14 15 11 14 13 28 28 20
9 10 11 18 16 11 16 18 28 30 29 31 32 42 45 43 41 36 30 35 43 52 31 33 36 35 32 25 26 35 43 36 35 32 37 42 37 41 23 29 30 27 26 21 12 12 19 19 17 13 14 17 23 28
9 9 13 13 18 17 21 27 28 24 31 35 40 41 39 40 41 41 35 38 36 40 33 22 24 31 38 38 34 32 40 38 35 41 41 35 40 35 40 32 22 24 25 27 27 22 21 22 24 23 21 21 21 23
12 11 15 18 20 25 23 27 27 34 42 44 41 38 39 36 34 35 26 33 43 45 30 11 13 24 29 27 26 22 30 38 46 42 41 39 41 41 23 38 26 24 20 16 19 19 21 25 26 24 21 21 21 23
20 20 19 19 23 25 30 36 40 41 44 42 42 44 39 35 32 28 26 38 43 35 16 13 17 14 17 24 24 24 23 29 30 35 41 31 35 24 18 22 31 34 30 29 23 19 19 22 22 24 21 18 19 20
30 26 26 24 28 32 30 34 36 39 39 42 42 48 39 34 34 30 42 33 30 27 21 15 14 11 10 18 20 17 16 20 19 32 26 36 48 21 20 18 24 26 24 23 25 26 26 28 26 23 25 22 20 18
27 26 30 29 32 43 48 44 38 42 48 48 38 44 44 35 29 21 12 11 9 9 13 16 15 19 11 9 17 16 11 10 11 14 25 26 37 44 28 28 29 29 26 25 25 25 26 22 21 21 19 18 17 17
22 23 27 29 32 27 31 35 34 36 37 36 37 35 30 21 10 8 9 9 6 7 8 17 20 16 17 17 17 17 10 10 6 14 14 17 20 33 30 29 26 22 20 20 21 22 22 22 21 21 20 16 18 22
23 22 23 23 24 27 25 25 25 29 30 34 32 18 9 7 6 7 8 9 7 10 8 10 17 16 14 16 13 6 10 10 10 12 9 14 24 23 26 29 31 29 22 22 23 22 21 21 23 22 22 21 22 26
22 22 23 23 24 25 23 26 28 30 28 19 12 9 5 5 6 8 11 13 13 11 14 14 14 4 13 14 10 7 6 9 11 14 13 15 21 25 26 29 34 34 32 30 28 27 28 29 30 31 25 24 20 15
22 22 21 20 22 25 24 23 25 16 8 8 6 7 11 12 15 14 12 13 18 18 15 11 6 4 2 6 7 5 9 4 3 4 11 13 14 18 22 25 26 24 22 20 21 23 21 22 21 19 19 16 13 11
21 25 29 29 19 19 22 17 10 8 14 9 10 14 13 10 12 13 12 16 16 15 15 8 2 2 3 2 3 5 4 4 4 7 9 10 9 10 12 13 13 12 13 15 17 17 16 14 15 15 15 13 10 8
21 20 16 17 21 19 13 8 10 15 9 9 11 12 10 8 9 12 14 17 16 18 12 4 4 3 1 4 7 6 6 5 3 5 6 6 7 9 11 12 14 16 18 19 20 20 18 17 15 13 10 10 9 7
18 17 13 9 10 10 8 6 9 8 12 9 8 10 10 8 6 10 9 13 9 15 9 6 4 4 5 5 9 5 3 3 4 6 7 8 10 13 16 19 20 20 19 19 18 17 15 14 12 11 10 9 7 4
12 13 11 7 7 8 9 8 6 6 9 10 9 8 8 8 7 14 10 11 9 9 6 6 4 5 9 15 12 10 8 7 7 8 9 11 14 15 15 16 16 16 15 16 14 13 13 12 10 8 7 5 4 5
5 6 5 4 7 7 7 6 9 9 12 12 10 7 7 8 10 7 12 12 7 7 1 2 5 10 12 12 9 6 7 8 9 12 15 16 15 15 17 17 19 19 16 14 12 11 10 7 5 4 3 4 5 7
2 3 2 1 4 7 6 9 10 11 14 14 13 11 10 10 11 10 9 7 7 7 6 7 10 12 12 9 6 4 6 9 10 12 15 18 19 19 20 20 18 14 11 11 9 7 5 4 3 5 6 8 10 13
3 3 9 4 11 16 15 16 16 17 17 16 14 14 13 13 11 9 9 9 10 10 9 10 13 13 12 9 7 7 7 7 8 11 15 17 20 21 20 17 14 12 10 7 5 3 3 4 5 7 9 12 14 15
13 13 12 14 12 10 13 13 13 9 6 8 8 12 14 17 13 8 12 18 17 15 13 11 10 10 9 8 8 8 9 9 11 14 16 18 18 16 15 14 11 8 4 2 3 3 4 6 8 11 13 15 16 15
13 13 13 8 10 12 13 14 16 15 13 14 17 18 19 17 15 20 23 18 14 12 12 13 13 11 9 9 9 12 14 14 16 18 17 15 14 13 11 8 5 2 2 3 4 6 9 11 12 14 14 14 12 11
9 10 9 9 8 11 14 16 16 16 17 16 15 11 10 9 10 10 14 14 12 10 11 10 8 9 9 11 14 15 15 15 14 14 15 14 10 8 6 3 1 2 3 6 8 9 11 12 13 13 12 10 9 10
8 10 6 6 9 7 7 10 10 12 12 12 9 8 8 7 6 6 9 10 10 9 10 11 12 11 11 12 13 14 15 14 12 9 9 8 7 4 2 1 2 4 7 9 10 11 11 12 12 11 9 9 10 11
9 11 16 16 15 14 14 13 11 9 9 7 8 7 6 4 5 5 8 9 9 9 9 10 10 9 8 8 9 8 7 7 6 6 6 4 2 1 1 4 7 8 9 10 11 12 12 11 9 8 9 9 11 13
12 14 13 14 12 12 10 11 10 10 9 9 8 6 5 5 3 2 8 9 9 8 8 7 6 6 5 5 5 5 5 6 5 4 1 0 2 4 6 7 8 9 10 11 12 11 10 9 8 8 9 10 12 13
18 16 14 11 11 14 18 19 16 16 14 12 12 10 8 7 4 2 6 7 7 7 7 6 6 6 6 5 5 6 6 4 1 1 4 5 6 7 8 9 9 10 11 11 11 10 9 8 8 9 10 11 12 14
16 15 12 12 15 19 17 15 15 15 13 13 12 11 10 9 6 4 3 4 5 5 5 5 5 5 5 5 5 5 3 3 4 5 6 7 7 8 8 9 10 10 11 11 10 9 8 8 8 10 11 12 13 14
17 13 13 15 18 17 14 13 13 12 13 13 14 13 11 9 6 3 1 2 4 5 5 4 5 5 5 5 5 4 5 5 6 7 7 8 8 8 9 9 10 10 10 9 8 7 7 8 9 10 11 12 14 15
16 15 12 13 14 12 10 12 12 12 12 11 10 11 9 7 4 3 1 1 2 3 2 4 5 6 6 6 5 5 6 7 8 9 9 8 9 9 9 9 10 9 8 7 7 7 8 10 10 11 12 13 14 16
14 12 10 11 11 10 10 8 10 11 9 7 9 10 9 7 5 4 5 4 4 4 6 7 6 6 6 5 6 7 8 9 9 9 9 9 9 9 9 9 9 8 8 7 8 9 10 11 11 12 13 14 15 16